Location: Arcizac
(43.0933°N, 0.0112°E)
Time: 21:15:42
(UTC+00:00)

CZ-4 R/B - Pass Details

Date: 14 December 2019
Orbit: 579 x 590 km, 97.8° (Epoch: 19 January)

Event Time Altitude Azimuth Distance (km) Brightness Sun altitude
Rises 18:15:09 0° 167° (SSE) 2,808 8.0 -19.2°
Reaches altitude 10° 18:17:18 10° 168° (SSE) 1,912 7.1 -19.6°
Maximum altitude 18:21:28 86° 256° (WSW) 598 4.4 -20.4°
Drops below altitude 10° 18:25:39 10° 346° (NNW) 1,927 7.1 -21.1°
Sets 18:27:50 0° 347° (NNW) 2,832 8.0 -21.5°
